Regional Weather Roundup
Issued by NWS

Home | Current Version | Previous Version | Text Only | Print | Product List | Glossary On
Versions: 1 2 3 4 5 6 7 8 9 10 11 12 13 14 15 16 17 18 19 20 21 22 23 24 25 26 27 28 29 30 31 32 33 34 35 36 37 38 39 40 41 42 43 44 45 46 47 48 49 50
000
ASUS43 KIND 270709
RWRIN

WEATHER ROUNDUP FOR INDIANA
NATIONAL WEATHER SERVICE INDIANAPOLIS IN
200 AM EST FRI FEB 27 2015

NOTE: "FAIR" INDICATES FEW OR NO CLOUDS BELOW 12,000 FEET WITH NO
SIGNIFICANT WEATHER AND/OR OBSTRUCTIONS TO VISIBILITY.

* - STATION DOES NOT REPORT WEATHER SUCH AS PRECIPITATION OR FOG.

+ - STATION NOT QUALITY CONTROLLED BY THE NATIONAL WEATHER SERVICE.
    USE DATA WITH CAUTION...ESPECIALLY DEWPOINT AND RELATIVE
    HUMIDITY OBSERVATIONS.

INZ001>003-010>013-019-020-270800-
NORTHWEST INDIANA

CITY           SKY/WX    TMP DP  RH WIND       PRES   REMARKS
GARY /AIRPORT/ PTCLDY     8  -7  50 W8        30.43S WCI  -5
KNOX *+          N/A      9  -4  56 CALM      30.40S
LA PORTE +     LGT SNOW  10   7  87 CALM      30.39S
MICHIGAN CITY+ LGT SNOW  12   5  73 E3        30.41S
MONTICELLO +   CLOUDY     5   0  81 W3        30.41S
RENSSELAER +   CLEAR      1  -2  85 W7        30.43R WCI -11
VALPARAISO     FLURRIES   5  -3  69 W8        30.39S WCI  -8

$$

LMZ046-743>745-270800-
SOUTHERN LAKE MICHIGAN

STATION/POSITION TIME  TEMP WIND        PRES
                       AIR  DIR/SP/G
                 (UTC) (F)  (DEG/KT/KT) (MB)
MICHIGAN CITY    0700   11   40/  6/  6   N/A

$$

INZ004-005-014>016-021>024-270800-
NORTH CENTRAL INDIANA

CITY           SKY/WX    TMP DP  RH WIND       PRES   REMARKS
GOSHEN         PTCLDY    -5 -11  75 CALM      30.38R
LOGANSPORT +   FLURRIES   3   0  85 W6        30.41R WCI  -8
PERU/GRISSOM   CLOUDY     4   0  82 W6        30.38R WCI  -6
ROCHESTER +    CLOUDY    12   9  85 SW3       30.39S
SOUTH BEND     CLEAR      4  -4  69 N7        30.40R WCI  -8
WARSAW +       CLOUDY     1  -4  78 CALM      30.38R

$$

INZ006>009-017-018-025>027-270800-
NORTHEAST INDIANA

CITY           SKY/WX    TMP DP  RH WIND       PRES   REMARKS
ANGOLA *+      CLEAR    -11 -15  84 CALM      30.35R
AUBURN +       CLEAR      0  -6  78 W3        30.37S
FORT WAYNE     PTCLDY     3  -6  66 NW5       30.38R WCI  -6
HUNTINGTON +   CLEAR      3  -7  63 CALM      30.38R

$$

INZ028-029-035-036-043>045-051>053-270800-
WEST CENTRAL INDIANA

CITY           SKY/WX    TMP DP  RH WIND       PRES   REMARKS
CRAWFORDSVL +  CLOUDY     5  -2  74 NW6       30.42R WCI  -6
GREENCASTLE +  PTCLDY     9   3  78 NW3       30.42R
LAFAYETTE      MOCLDY     5  -2  72 NW8       30.43R WCI  -8
TERRE HAUTE    FLURRIES  10   5  80 NW5       30.45R WCI   2

$$

INZ030>032-037>040-046>048-054>057-064-065-270800-
CENTRAL INDIANA

CITY           SKY/WX    TMP DP  RH WIND       PRES   REMARKS
CP ATTERBURY + CLEAR     10   3  72 NW6       30.41S WCI   1
FRANKFORT +    FLURRIES   2  -1  88 W6        30.42R WCI  -9
GREENWOOD *+   CLEAR      7   0  72 W5        30.40R WCI  -2
INDIANAPOLIS   CLEAR      4  -1  80 NW7       30.40R WCI  -8
-EAGLE CREEK   CLEAR      5   1  83 NW6       30.40R WCI  -6
KOKOMO *+      CLEAR      3  -2  78 W5        30.39R WCI  -6
MARION +       CLEAR      1  -5  77 NW6       30.39R WCI -11
MT COMFORT *+  CLEAR      1  -9  60 NW3       30.39S
SHELBYVILLE    CLEAR      5  -2  72 NW5       30.39R WCI  -4
ZIONSVILLE +   CLEAR      0  -5  78 W3        30.40R

$$

INZ033-034-041-042-049-050-058-059-270800-
EAST CENTRAL INDIANA

CITY           SKY/WX    TMP DP  RH WIND       PRES   REMARKS
MUNCIE         CLEAR      2  -4  76 NW5       30.37R WCI  -8

$$

INZ060-061-067>069-081>083-085>088-270800-
SOUTHWEST INDIANA

CITY           SKY/WX    TMP DP  RH WIND       PRES   REMARKS
EVANSVILLE     CLEAR     17   5  59 N9        30.47R WCI   6
HUNTINGBURG *+ CLEAR     16   3  57 N7        30.44R WCI   6
WASHINGTON +   CLEAR      9   0  68 NW7       30.46R WCI  -2

$$

INZ062-063-066-070>080-084-089>092-270800-
SOUTH CENTRAL AND SOUTHEAST INDIANA

CITY           SKY/WX    TMP DP  RH WIND       PRES   REMARKS
BLOOMINGTON    CLEAR      3  -1  83 CALM      30.41R
NORTH VERNON + PTCLDY    10   5  79 N3        30.39R
SEYMOUR +      CLEAR     12   5  73 NW6       30.42R WCI   3

$$



USA.gov is the U.S. government's official web portal to all federal, state and local government web resources and services.